This is the latest recevied weather packets stored in our database for station/object IW2LSY-11. If no packets are shown the sender has not sent any weather packets the latest 10 day(s).
| Time | Temp. | Humidity | Pressure | Rain* | Wind** | Luminosity | Snow |
|---|---|---|---|---|---|---|---|
| 1777532406 | 15.56° C | 65% | 1023.3 hPa | - | - | 289 W/m² | - |
| 1777531807 | 15° C | 69% | 1023.2 hPa | - | - | 290 W/m² | - |
| 1777531207 | 13.89° C | 74% | 1023.2 hPa | - | - | 290 W/m² | - |
| 1777530607 | 13.89° C | 80% | 1023.1 hPa | - | - | 290 W/m² | - |
| 1777530007 | 13.33° C | 82% | 1023.1 hPa | - | - | 291 W/m² | - |
| 1777529408 | 13.33° C | 84% | 1023 hPa | - | - | 291 W/m² | - |
| 1777528808 | 13.33° C | 82% | 1022.9 hPa | - | - | 291 W/m² | - |
| 1777528208 | 12.78° C | 78% | 1022.9 hPa | - | - | 292 W/m² | - |
| 1777527608 | 12.78° C | 87% | 1022.8 hPa | - | - | 292 W/m² | - |
| 1777527008 | 12.22° C | 87% | 1022.7 hPa | - | - | 293 W/m² | - |
| 1777526409 | 12.22° C | 88% | 1022.4 hPa | - | - | 293 W/m² | - |
| 1777525809 | 12.22° C | 86% | 1022.3 hPa | - | - | 293 W/m² | - |
| 1777525209 | 11.11° C | 88% | 1022.2 hPa | - | - | 294 W/m² | - |
| 1777524609 | 11.67° C | 89% | 1022.1 hPa | - | - | 295 W/m² | - |
| 1777524010 | 11.67° C | 88% | 1022 hPa | - | - | 295 W/m² | - |
| 1777523410 | 11.67° C | 87% | 1021.9 hPa | - | - | 295 W/m² | - |
| 1777522810 | 12.22° C | 84% | 1021.9 hPa | - | - | 295 W/m² | - |
| 1777522210 | 11.67° C | 86% | 1021.8 hPa | - | - | 295 W/m² | - |
| 1777521610 | 11.67° C | 89% | 1021.6 hPa | - | - | 296 W/m² | - |
| 1777521010 | 12.22° C | 85% | 1021.6 hPa | - | - | 296 W/m² | - |
| 1777520410 | 11.67° C | 86% | 1021.6 hPa | - | - | 296 W/m² | - |
| 1777519810 | 11.67° C | 87% | 1021.6 hPa | - | - | 297 W/m² | - |
| 1777519211 | 11.67° C | 85% | 1021.6 hPa | - | - | 297 W/m² | - |
| 1777518611 | 11.67° C | 86% | 1021.6 hPa | - | - | 298 W/m² | - |
| 1777518012 | 12.22° C | 84% | 1021.6 hPa | - | - | 298 W/m² | - |
* Rain since midnight (hover to see other rain measurements)
** Current wind speed in m/s (hover to see current wind gust speed)